• In Netherlands
  • List of Countries
  • For 7 days
  • Water Temperature
  • Satellite Maps
  • Weather Map
  • Weather Widgets
  • user-avatar
    Login

    Hourly Weather Rangpur

    Today, 18 January, Wednesday

    Time Temperature Precipitation Wind Pressure Humidity
    00:00 +17°C° 0 mm 2 mps 759 mmHg 41%
    01:00 +16°C° 0 mm 2 mps 759 mmHg 42%
    02:00 +15°C° 0 mm 1 mps 759 mmHg 44%
    03:00 +15°C° 0 mm 1 mps 759 mmHg 46%
    04:00 +15°C° 0 mm 1 mps 759 mmHg 46%
    05:00 +15°C° 0 mm 2 mps 759 mmHg 46%
    06:00 +14°C° 0 mm 1 mps 759 mmHg 48%
    07:00 +16°C° 0 mm 1 mps 760 mmHg 43%
    08:00 +18°C° 0 mm 2 mps 761 mmHg 39%
    09:00 +20°C° 0 mm 2 mps 761 mmHg 34%
    10:00 +23°C° 0 mm 2 mps 761 mmHg 32%
    11:00 +26°C° 0 mm 2 mps 761 mmHg 29%
    12:00 +28°C° 0 mm 2 mps 761 mmHg 30%
    13:00 +28°C° 0 mm 2 mps 760 mmHg 28%
    14:00 +29°C° 0 mm 2 mps 760 mmHg 25%
    15:00 +29°C° 0 mm 2 mps 759 mmHg 23%
    16:00 +27°C° 0 mm 2 mps 759 mmHg 27%
    17:00 +24°C° 0 mm 2 mps 759 mmHg 31%
    18:00 +22°C° 0 mm 1 mps 759 mmHg 35%
    19:00 +21°C° 0 mm 1 mps 759 mmHg 37%
    20:00 +21°C° 0 mm 1 mps 760 mmHg 39%
    21:00 +20°C° 0 mm 1 mps 760 mmHg 41%
    22:00 +19°C° 0 mm 1 mps 760 mmHg 42%
    23:00 +19°C° 0 mm 1 mps 760 mmHg 44%

    Tomorrow, 19 January, Thursday

    Time Temperature Precipitation Wind Pressure Humidity
    00:00 +18°C° 0 mm 1 mps 760 mmHg 46%
    01:00 +18°C° 0 mm 1 mps 760 mmHg 47%
    02:00 +16°C° 0 mm 1 mps 760 mmHg 49%
    03:00 +16°C° 0 mm 1 mps 760 mmHg 50%
    04:00 +16°C° 0 mm 2 mps 760 mmHg 51%
    05:00 +15°C° 0 mm 2 mps 760 mmHg 53%
    06:00 +15°C° 0 mm 2 mps 759 mmHg 54%
    07:00 +17°C° 0 mm 2 mps 760 mmHg 50%
    08:00 +19°C° 0 mm 2 mps 760 mmHg 46%
    09:00 +21°C° 0 mm 2 mps 761 mmHg 42%
    10:00 +24°C° 0 mm 2 mps 761 mmHg 38%
    11:00 +26°C° 0 mm 2 mps 761 mmHg 33%
    12:00 +29°C° 0 mm 2 mps 760 mmHg 29%
    13:00 +29°C° 0 mm 2 mps 760 mmHg 26%
    14:00 +30°C° 0 mm 1 mps 759 mmHg 24%
    15:00 +30°C° 0 mm 1 mps 758 mmHg 21%
    16:00 +28°C° 0 mm 1 mps 758 mmHg 25%
    17:00 +25°C° 0 mm 1 mps 758 mmHg 29%
    18:00 +22°C° 0 mm 1 mps 758 mmHg 33%
    19:00 +22°C° 0 mm 1 mps 758 mmHg 34%
    20:00 +21°C° 0 mm 1 mps 759 mmHg 35%
    21:00 +20°C° 0 mm 1 mps 759 mmHg 36%
    22:00 +19°C° 0 mm 1 mps 759 mmHg 38%
    23:00 +19°C° 0 mm 1 mps 759 mmHg 39%

    Day after tomorrow, 20 January, Friday

    Time Temperature Precipitation Wind Pressure Humidity
    00:00 +18°C° 0 mm 1 mps 760 mmHg 41%
    01:00 +18°C° 0 mm 1 mps 759 mmHg 42%
    02:00 +16°C° 0 mm 1 mps 759 mmHg 44%
    03:00 +16°C° 0 mm 1 mps 759 mmHg 45%
    04:00 +15°C° 0 mm 1 mps 759 mmHg 47%
    05:00 +15°C° 0 mm 1 mps 759 mmHg 49%
    06:00 +14°C° 0 mm 1 mps 759 mmHg 51%
    07:00 +16°C° 0 mm 1 mps 759 mmHg 47%
    08:00 +19°C° 0 mm 1 mps 760 mmHg 42%
    09:00 +21°C° 0 mm 1 mps 761 mmHg 38%
    10:00 +24°C° 0 mm 1 mps 760 mmHg 33%
    11:00 +26°C° 0 mm 1 mps 760 mmHg 28%
    12:00 +29°C° 0 mm 1 mps 760 mmHg 23%
    13:00 +29°C° 0 mm 1 mps 759 mmHg 21%
    14:00 +30°C° 0 mm 1 mps 758 mmHg 19%
    15:00 +30°C° 0 mm 1 mps 757 mmHg 17%
    16:00 +27°C° 0 mm 1 mps 758 mmHg 20%
    17:00 +25°C° 0 mm 1 mps 758 mmHg 24%
    18:00 +22°C° 0 mm 1 mps 758 mmHg 28%
    19:00 +21°C° 0 mm 1 mps 758 mmHg 30%
    20:00 +20°C° 0 mm 1 mps 759 mmHg 32%
    21:00 +20°C° 0 mm 1 mps 759 mmHg 34%
    22:00 +19°C° 0 mm 1 mps 759 mmHg 37%
    23:00 +18°C° 0 mm 1 mps 759 mmHg 39%

    21 January, Saturday

    Time Temperature Precipitation Wind Pressure Humidity
    00:00 +18°C° 0 mm 1 mps 759 mmHg 41%
    01:00 +16°C° 0 mm 1 mps 759 mmHg 43%
    02:00 +16°C° 0 mm 2 mps 759 mmHg 44%
    03:00 +16°C° 0 mm 2 mps 759 mmHg 46%
    04:00 +15°C° 0 mm 2 mps 759 mmHg 47%
    05:00 +15°C° 0 mm 2 mps 759 mmHg 49%
    06:00 +15°C° 0 mm 2 mps 759 mmHg 50%
    07:00 +16°C° 0 mm 2 mps 760 mmHg 46%
    08:00 +18°C° 0 mm 2 mps 761 mmHg 41%
    09:00 +20°C° 0 mm 2 mps 761 mmHg 36%
    10:00 +24°C° 0 mm 2 mps 761 mmHg 32%
    11:00 +26°C° 0 mm 2 mps 761 mmHg 27%
    12:00 +29°C° 0 mm 2 mps 761 mmHg 23%
    13:00 +29°C° 0 mm 2 mps 760 mmHg 21%
    14:00 +30°C° 0 mm 1 mps 759 mmHg 19%
    15:00 +30°C° 0 mm 1 mps 758 mmHg 18%
    16:00 +27°C° 0 mm 1 mps 759 mmHg 22%
    17:00 +25°C° 0 mm 1 mps 759 mmHg 27%
    18:00 +22°C° 0 mm 1 mps 759 mmHg 31%
    19:00 +21°C° 0 mm 1 mps 759 mmHg 32%
    20:00 +21°C° 0 mm 1 mps 760 mmHg 33%
    21:00 +19°C° 0 mm 2 mps 760 mmHg 34%
    22:00 +19°C° 0 mm 2 mps 760 mmHg 36%
    23:00 +18°C° 0 mm 2 mps 760 mmHg 38%

    22 January, Sunday

    Time Temperature Precipitation Wind Pressure Humidity
    00:00 +18°C° 0 mm 2 mps 760 mmHg 39%
    01:00 +17°C° 0 mm 2 mps 760 mmHg 40%
    02:00 +17°C° 0 mm 2 mps 760 mmHg 41%
    03:00 +16°C° 0 mm 2 mps 760 mmHg 42%
    04:00 +16°C° 0 mm 2 mps 760 mmHg 43%
    05:00 +15°C° 0 mm 2 mps 760 mmHg 44%
    06:00 +15°C° 0 mm 2 mps 760 mmHg 44%
    07:00 +17°C° 0 mm 2 mps 761 mmHg 40%
    08:00 +19°C° 0 mm 2 mps 761 mmHg 35%
    09:00 +21°C° 0 mm 2 mps 762 mmHg 31%
    10:00 +25°C° 0 mm 2 mps 762 mmHg 27%
    11:00 +27°C° 0 mm 2 mps 761 mmHg 24%
    12:00 +29°C° 0 mm 2 mps 761 mmHg 20%
    13:00 +30°C° 0 mm 2 mps 760 mmHg 19%
    14:00 +30°C° 0 mm 2 mps 759 mmHg 18%
    15:00 +31°C° 0 mm 1 mps 758 mmHg 16%
    16:00 +28°C° 0 mm 1 mps 758 mmHg 20%
    17:00 +25°C° 0 mm 1 mps 758 mmHg 25%
    18:00 +22°C° 0 mm 1 mps 758 mmHg 29%
    19:00 +22°C° 0 mm 1 mps 759 mmHg 30%
    20:00 +21°C° 0 mm 1 mps 759 mmHg 32%
    21:00 +21°C° 0 mm 1 mps 760 mmHg 33%
    22:00 +19°C° 0 mm 2 mps 760 mmHg 35%
    23:00 +18°C° 0 mm 2 mps 760 mmHg 37%

    23 January, Monday

    Time Temperature Precipitation Wind Pressure Humidity
    00:00 +18°C° 0 mm 2 mps 760 mmHg 39%
    01:00 +17°C° 0 mm 2 mps 760 mmHg 40%
    02:00 +17°C° 0 mm 2 mps 759 mmHg 41%
    03:00 +16°C° 0 mm 2 mps 759 mmHg 42%
    04:00 +16°C° 0 mm 2 mps 759 mmHg 43%
    05:00 +15°C° 0 mm 1 mps 759 mmHg 43%
    06:00 +15°C° 0 mm 1 mps 760 mmHg 44%
    07:00 +17°C° 0 mm 2 mps 760 mmHg 39%
    08:00 +19°C° 0 mm 2 mps 761 mmHg 34%
    09:00 +21°C° 0 mm 2 mps 761 mmHg 30%
    10:00 +25°C° 0 mm 2 mps 761 mmHg 26%
    11:00 +27°C° 0 mm 2 mps 761 mmHg 22%
    12:00 +29°C° 0 mm 2 mps 760 mmHg 19%
    13:00 +30°C° 0 mm 2 mps 759 mmHg 18%
    14:00 +31°C° 0 mm 1 mps 759 mmHg 17%
    15:00 +31°C° 0 mm 1 mps 758 mmHg 16%
    16:00 +28°C° 0 mm 1 mps 758 mmHg 20%
    17:00 +25°C° 0 mm 1 mps 758 mmHg 24%
    18:00 +22°C° 0 mm 1 mps 758 mmHg 28%
    19:00 +22°C° 0 mm 1 mps 759 mmHg 29%
    20:00 +21°C° 0 mm 1 mps 759 mmHg 30%
    21:00 +20°C° 0 mm 2 mps 760 mmHg 31%
    22:00 +19°C° 0 mm 2 mps 760 mmHg 33%
    23:00 +19°C° 0 mm 2 mps 759 mmHg 35%
    Show more